Hourly Data Report for October 15, 2013

All times are specified in Local Standard Time (LST). Add 1 hour to adjust for Daylight Saving Time where and when it is observed.

RANKIN INLET A
NUNAVUT

62°48'38.000" N
92°06'53.000" W
32.30 m
2303405
71083
YRT

Download Data

Hourly Data (October 2013)
Hourly Data Report for October 15, 2013
Temp Definition
°C
Dew Point Temp Definition
°C
Rel Hum Definition
%
Wind Dir Definition
10's deg

Wind Spd Definition
km/h
Visibility Definition
km
Stn Press Definition
kPa
Hmdx Definition


Wind Chill Definition


Weather Definition


TIME
00:00 Legend Double Dagger -1.2 -2.9 88 33 42 24.1 100.39   -9 Snow Showers
01:00 Legend Double Dagger -1.3 -3.0 88 33 46 24.1 100.45   -10 Snow Showers
02:00 Legend Double Dagger -1.9 -3.5 89 33 45 24.1 100.44   -10 Snow Showers
03:00 Legend Double Dagger -2.3 -4.2 87 33 49 24.1 100.45   -11 Cloudy
04:00 Legend Double Dagger -2.8 -4.1 91 33 40 24.1 100.50   -11 LegendNANA
05:00 Legend Double Dagger -3.0 -4.6 89 33 41 24.1 100.48   -11 LegendNANA
06:00 Legend Double Dagger -3.8 -5.2 90 33 42 24.1 100.46   -13 Mostly Cloudy
07:00 Legend Double Dagger -4.0 -5.6 89 33 38 24.1 100.44   -13 LegendNANA
08:00 Legend Double Dagger -4.6 -5.4 94 33 36 16.1 100.40   -13 LegendNANA
09:00 Legend Double Dagger -4.4 -5.4 93 33 28 16.1 100.41   -12 Mainly Clear
10:00 Legend Double Dagger -4.2 -5.6 90 32 23 24.1 100.38   -11 LegendNANA
11:00 Legend Double Dagger -3.9 -4.9 93 31 26 12.9 100.39   -11 LegendNANA
12:00 Legend Double Dagger -3.7 -5.3 89 31 22 9.7 100.33   -10 Fog
13:00 Legend Double Dagger -3.3 -5.2 87 31 15 24.1 100.29   -8 LegendNANA
14:00 Legend Double Dagger -3.6 -5.5 87 30 16 24.1 100.26   -9 LegendNANA
15:00 Legend Double Dagger -3.4 -5.3 87 30 14 24.1 100.22   -8 Mostly Cloudy
16:00 Legend Double Dagger -3.2 -5.1 87 30 10 24.1 100.18   -7 LegendNANA
17:00 Legend Double Dagger -3.1 -5.0 87 30 7 24.1 100.17   -6 LegendNANA
18:00 Legend Double Dagger -3.0 -5.0 86 31 3 24.1 100.14   -4 Mostly Cloudy
19:00 Legend Double Dagger -2.7 -4.4 88 1 2 24.1 100.08   -3 LegendNANA
20:00 Legend Double Dagger -1.9 -3.9 86 20 5 24.1 100.03   -4 LegendNANA
21:00 Legend Double Dagger -1.7 -4.2 83 18 9 24.1 100.00   -5 Cloudy
22:00 Legend Double Dagger -1.5 -3.4 87 18 8 24.1 99.96   -5 LegendNANA
23:00 Legend Double Dagger -1.3 -2.9 89 17 10 24.1 99.90   -5 LegendNANA

Notes on Data Quality.

Legend

  • E = Estimated
  • M = Missing
  • NA = Not Available
  • ‡ = Partner data that is not subject to review by the National Climate Archives
Date modified: